Location: Sommers-Bausch Observatory
(40.0037°N, 105.2635°W)
Time: 04:49:01
(UTC-07:00)

Amateur Radio Satellites - All Passes

Search period start: 27 February 2017 04:19
Search period end: 28 February 2017 04:19
Location: Sommers-Bausch Observatory, 40.0037°N, 105.2635°W

Satellite Date Start Highest point End Downlink Frequencies (MHz)
Time Altitude Azimuth
M-CUBED/EXP-1 PRIME 27 Feb 04:31:40 04:34:55 70° 252° (WSW) 04:38:11 437.505
STARS 27 Feb 04:43:40 04:47:48 41° 261° (W) 04:51:58 437.465
ITAMSAT 1 27 Feb 04:44:43 04:48:19 19° 297° (WNW) 04:51:54 435.822/435.867
RS-15 27 Feb 04:52:57 04:59:24 16° 265° (W) 05:05:45 29.354- 29.394
BEESAT 3 27 Feb 05:01:06 05:04:33 31° 114° (ESE) 05:08:03 437.485
CUBESAT XI-V 27 Feb 05:04:11 05:07:45 22° 266° (W) 05:11:19 437.345
AO-85 27 Feb 05:05:47 05:08:50 18° 314° (NW) 05:11:48 145.980
XW-2D 27 Feb 05:10:01 05:11:45 13° 91° (E) 05:13:28 145.860 - 145.880
XW-2B 27 Feb 05:14:48 05:16:53 14° 92° (E) 05:18:56 145.730 - 145.750
XW-2C 27 Feb 05:23:01 05:25:42 18° 93° (E) 05:28:22 145.795 - 145.815
AO-7 27 Feb 05:27:24 05:34:14 30° 303° (WNW) 05:41:03 .
NUDT-PHONESAT 27 Feb 05:27:49 05:30:16 16° 93° (E) 05:32:41 437.300
DOVE 4 27 Feb 05:31:07 05:35:26 32° 97° (E) 05:39:55 437.250
LilacSat-2 27 Feb 05:41:26 05:44:54 31° 97° (E) 05:48:19 437.200
BEESAT 2 27 Feb 05:43:38 05:47:16 37° 115° (ESE) 05:50:57 435.950
ISS 27 Feb 05:47:25 05:48:42 12° 129° (SE) 05:49:59 437.550
HO-68 27 Feb 05:59:27 06:01:06 11° 87° (E) 06:02:46 435.675
CUTE-I 27 Feb 06:05:53 06:11:09 53° 100° (E) 06:16:23 437.470
Tancredo 1 27 Feb 06:06:42 06:09:07 20° 132° (SE) 06:11:32 437.200
SO-50 27 Feb 06:13:00 06:17:26 56° 54° (NE) 06:21:50 436.795
STRAND 1 27 Feb 06:16:26 06:21:28 58° 73° (ENE) 06:26:32 437.568
KAITUO 1B 27 Feb 06:28:11 06:31:57 81° 285° (WNW) 06:35:41 145.475/437.950
XW-2F 27 Feb 06:36:30 06:40:13 51° 286° (WNW) 06:43:53 145.980 - 146.000
BEESAT 3 27 Feb 06:39:01 06:42:11 23° 312° (NW) 06:45:23 437.485
XW-2D 27 Feb 06:42:32 06:46:08 40° 287° (WNW) 06:49:42 145.860 - 145.880
XW-2B 27 Feb 06:47:42 06:51:14 36° 288° (WNW) 06:54:43 145.730 - 145.750
CUTE 1.7 + AOD 2 27 Feb 06:51:48 06:55:08 22° 94° (E) 06:58:26 437.475
O/OREOS (USA 219) 27 Feb 06:53:44 06:56:44 17° 55° (NE) 06:59:44 437.305
XW-2C 27 Feb 06:56:37 06:59:56 28° 289° (WNW) 07:03:13 145.795 - 145.815
NUDT-PHONESAT 27 Feb 07:00:56 07:04:16 30° 289° (WNW) 07:07:33 437.300
DOVE 4 27 Feb 07:08:57 07:12:59 28° 291° (WNW) 07:17:11 437.250
LilacSat-2 27 Feb 07:16:23 07:18:55 17° 293° (WNW) 07:21:26 437.200
ISS 27 Feb 07:21:27 07:24:44 72° 324° (NW) 07:28:02 437.550
BEESAT 2 27 Feb 07:22:09 07:25:10 21° 313° (NW) 07:28:14 435.950
AAUSAT CUBESAT 2 27 Feb 07:28:21 07:31:13 18° 93° (E) 07:34:03 437.432
CUBEBUG 2 27 Feb 07:31:26 07:35:39 30° 95° (E) 07:39:46 437.445
XW-2A 27 Feb 07:40:14 07:43:37 51° 285° (WNW) 07:46:58 145.665 - 145.685
Tancredo 1 27 Feb 07:42:03 07:45:10 43° 328° (NNW) 07:48:18 437.200
HO-68 27 Feb 07:42:45 07:49:56 74° 104° (ESE) 07:57:03 435.675
SEEDS 27 Feb 07:44:27 07:48:35 60° 101° (E) 07:52:40 437.485
CUTE-I 27 Feb 07:46:55 07:50:47 21° 297° (WNW) 07:54:38 437.470
SO-50 27 Feb 07:54:53 07:57:25 15° 251° (WSW) 07:59:56 436.795
STRAND 1 27 Feb 07:57:54 08:01:01 16° 269° (W) 08:04:08 437.568
UWE-3 27 Feb 08:04:11 08:08:37 41° 98° (E) 08:12:56 435.000/436.395/437.385
ZACube-1 27 Feb 08:20:28 08:24:40 36° 97° (E) 08:28:46 437.345
CUTE 1.7 + AOD 2 27 Feb 08:27:19 08:30:56 28° 290° (WNW) 08:34:33 437.475
PRISM 27 Feb 08:29:35 08:33:35 59° 73° (ENE) 08:37:36 437.425
O/OREOS (USA 219) 27 Feb 08:32:00 08:36:27 51° 252° (WSW) 08:40:54 437.305
DELFI C3 27 Feb 08:42:33 08:44:32 13° 92° (E) 08:46:31 145.870
FO-29 27 Feb 08:44:57 08:51:04 30° 62° (ENE) 08:57:32 435.910
ISS 27 Feb 08:59:29 09:01:40 16° 342° (NNW) 09:03:52 437.550
YUBILEINY 27 Feb 09:00:20 09:07:41 31° 83° (E) 09:15:00 435.215
AAUSAT CUBESAT 2 27 Feb 09:03:03 09:06:45 33° 289° (WNW) 09:10:26 437.432
AO-73 27 Feb 09:07:25 09:11:58 75° 284° (WNW) 09:16:23 145.935
CUBEBUG 2 27 Feb 09:08:07 09:12:07 27° 292° (WNW) 09:16:04 437.445
Oscar 11 27 Feb 09:11:23 09:15:43 77° 283° (WNW) 09:20:00 .
TIGRISAT 27 Feb 09:18:55 09:23:25 77° 76° (ENE) 09:28:03 435.000
UNISAT 6 27 Feb 09:19:18 09:23:49 84° 76° (ENE) 09:28:28 437.425
Tancredo 1 27 Feb 09:20:24 09:22:05 13° 347° (NNW) 09:23:46 437.200
SEEDS 27 Feb 09:22:17 09:23:44 12° 296° (WNW) 09:25:12 437.485
HO-68 27 Feb 09:31:45 09:36:56 22° 302° (WNW) 09:42:06 435.675
UWE-3 27 Feb 09:41:23 09:44:43 20° 294° (WNW) 09:48:01 435.000/436.395/437.385
EO-79 27 Feb 09:53:12 09:55:51 17° 65° (ENE) 09:58:33 145.935-145.965
ZACube-1 27 Feb 09:57:16 10:00:41 21° 293° (WNW) 10:04:02 437.345
NANOSAT C BR1 27 Feb 10:08:04 10:11:18 22° 68° (ENE) 10:14:34 145.865
POLYITAN 1 27 Feb 10:10:28 10:13:57 25° 69° (ENE) 10:17:28 437.675
QB50P2 27 Feb 10:13:20 10:17:00 29° 69° (ENE) 10:20:41 145.880/145.840
DELFI C3 27 Feb 10:15:49 10:19:31 40° 287° (WNW) 10:23:12 145.870
LO-87 27 Feb 10:18:30 10:21:18 21° 95° (E) 10:24:06 145.935 - 145.965
AIST 2D 27 Feb 10:19:16 10:22:41 47° 74° (ENE) 10:26:08 435.315
FO-29 27 Feb 10:28:27 10:35:30 60° 261° (W) 10:43:11 435.910
BUGSAT 1 27 Feb 10:29:11 10:30:25 11° 63° (ENE) 10:31:40 437.445
ISS 27 Feb 10:38:08 10:39:13 11° 3° (N) 10:40:16 437.550
YUBILEINY 27 Feb 10:55:21 11:03:57 56° 283° (WNW) 11:12:35 435.215
Tancredo 1 27 Feb 10:58:16 10:59:28 12° 7° (N) 11:00:40 437.200
DUCHIFAT 1 27 Feb 11:13:28 11:17:39 74° 259° (WSW) 11:21:53 145.980
EO-79 27 Feb 11:27:15 11:31:15 42° 261° (W) 11:35:19 145.935-145.965
ESTCUBE 1 27 Feb 11:30:46 11:35:16 77° 102° (ESE) 11:39:43 437.505/2401.250
Gurwin Techsat 1B 27 Feb 11:31:35 11:33:15 11° 58° (ENE) 11:34:56 435.225
SPROUT 27 Feb 11:37:20 11:40:47 23° 95° (E) 11:44:12 437.525
NANOSAT C BR1 27 Feb 11:43:07 11:46:50 30° 263° (W) 11:50:36 145.865
POLYITAN 1 27 Feb 11:46:04 11:49:38 26° 264° (W) 11:53:15 437.675
VELOX 1 27 Feb 11:46:16 11:50:20 35° 98° (E) 11:54:23 145.980
QB50P2 27 Feb 11:49:25 11:52:46 23° 265° (W) 11:56:09 145.880/145.840
LO-87 27 Feb 11:51:50 11:54:40 22° 290° (WNW) 11:57:30 145.935 - 145.965
AO-85 27 Feb 11:55:44 11:59:19 33° 52° (NE) 12:02:56 145.980
BUGSAT 1 27 Feb 12:01:12 12:05:13 61° 259° (W) 12:09:19 437.445
Oscar 19 27 Feb 12:03:43 12:08:29 39° 69° (ENE) 12:13:15 437.125/150
50 SAT 27 Feb 12:09:59 12:13:19 42° 99° (E) 12:16:36 437.505
ISS 27 Feb 12:14:01 12:16:38 21° 23° (NNE) 12:19:15 437.550
Tancredo 1 27 Feb 12:33:43 12:36:35 28° 27° (NNE) 12:39:25 437.200
AO-7 27 Feb 12:43:09 12:48:28 19° 50° (NE) 12:53:45 .
ITAMSAT 1 27 Feb 12:47:19 12:47:58 10° 57° (ENE) 12:48:36 435.822/435.867
DX 1 27 Feb 13:05:59 13:10:20 70° 285° (WNW) 13:14:40 434.975-435.025
Gurwin Techsat 1B 27 Feb 13:07:03 13:12:22 86° 76° (ENE) 13:17:42 435.225
ESTCUBE 1 27 Feb 13:10:25 13:11:24 11° 299° (WNW) 13:12:23 437.505/2401.250
SPROUT 27 Feb 13:12:56 13:16:40 29° 290° (WNW) 13:20:24 437.525
UKube-1 27 Feb 13:13:15 13:17:35 81° 284° (WNW) 13:21:54 .
BEESAT 3 27 Feb 13:18:43 13:21:32 18° 46° (NE) 13:24:20 437.485
VELOX 1 27 Feb 13:23:14 13:26:33 21° 293° (WNW) 13:29:52 145.980
AO-85 27 Feb 13:36:39 13:39:29 19° 248° (WSW) 13:42:21 145.980
Oscar 19 27 Feb 13:43:48 13:47:54 24° 266° (W) 13:52:01 437.125/150
50 SAT 27 Feb 13:45:08 13:46:01 11° 295° (WNW) 13:46:54 437.505
ISS 27 Feb 13:50:05 13:53:21 61° 220° (SW) 13:56:34 437.550
BEESAT 2 27 Feb 14:02:07 14:05:14 21° 47° (NE) 14:08:21 435.950
Tancredo 1 27 Feb 14:09:54 14:12:53 34° 224° (SW) 14:15:49 437.200
ITUPSAT 1 27 Feb 14:13:00 14:17:08 28° 96° (E) 14:21:14 437.325
BEESAT 27 Feb 14:17:48 14:22:07 32° 97° (E) 14:26:21 436.000
MOZHAYETS 4 27 Feb 14:19:14 14:20:46 11° 90° (E) 14:22:17
ITAMSAT 1 27 Feb 14:21:20 14:26:31 79° 75° (ENE) 14:31:46 435.822/435.867
AO-7 27 Feb 14:31:37 14:39:58 81° 70° (ENE) 14:48:21 .
PCSat 27 Feb 14:35:13 14:39:33 25° 107° (ESE) 14:43:55 145.827
RS-15 27 Feb 14:51:31 14:58:48 19° 97° (E) 15:06:13 29.354- 29.394
Gurwin Techsat 1B 27 Feb 14:51:45 14:52:57 11° 271° (W) 14:54:09 435.225
BEESAT 3 27 Feb 14:55:31 14:59:22 45° 243° (WSW) 15:03:11 437.485
NO-84 27 Feb 15:27:12 15:29:59 31° 129° (SE) 15:32:58 435.350 FM
BEESAT 2 27 Feb 15:39:22 15:43:08 38° 244° (WSW) 15:46:52 435.950
ITUPSAT 1 27 Feb 15:50:46 15:54:54 29° 292° (WNW) 15:59:00 437.325
CUTE-I 27 Feb 15:51:55 15:53:09 11° 57° (ENE) 15:54:23 437.470
MOZHAYETS 4 27 Feb 15:53:47 15:58:21 65° 285° (WNW) 16:02:53
BEESAT 27 Feb 15:55:47 15:59:44 26° 293° (WNW) 16:03:39 436.000
ITAMSAT 1 27 Feb 16:04:47 16:06:33 12° 270° (W) 16:08:21 435.822/435.867
KKS-1 27 Feb 16:06:25 16:10:39 40° 99° (E) 16:14:52 437.445
PCSat 27 Feb 16:17:30 16:22:39 44° 304° (NW) 16:27:52 145.827
LilacSat-2 27 Feb 16:23:33 16:25:56 16° 67° (ENE) 16:28:19 437.200
AO-7 27 Feb 16:27:42 16:33:32 21° 268° (W) 16:39:24 .
STARS 27 Feb 16:33:25 16:37:29 35° 98° (E) 16:41:32 437.465
DOVE 4 27 Feb 16:36:51 16:40:15 25° 69° (ENE) 16:43:42 437.250
RS-15 27 Feb 16:57:18 17:09:11 80° 118° (ESE) 17:21:33 29.354- 29.394
CUBESAT XI-V 27 Feb 16:59:53 17:04:30 83° 284° (WNW) 17:09:05 437.345
NO-84 27 Feb 17:04:52 17:07:38 25° 329° (NNW) 17:10:37 435.350 FM
KAITUO 1B 27 Feb 17:07:21 17:10:55 39° 73° (ENE) 17:14:30 145.475/437.950
XW-2F 27 Feb 17:16:12 17:20:00 63° 76° (ENE) 17:23:49 145.980 - 146.000
XW-2D 27 Feb 17:22:25 17:26:16 81° 77° (ENE) 17:30:08 145.860 - 145.880
CUTE-I 27 Feb 17:26:57 17:32:17 81° 75° (ENE) 17:37:41 437.470
XW-2B 27 Feb 17:27:32 17:31:23 89° 258° (WSW) 17:35:16 145.730 - 145.750
XW-2C 27 Feb 17:36:19 17:40:09 68° 259° (W) 17:44:00 145.795 - 145.815
NUDT-PHONESAT 27 Feb 17:38:51 17:42:37 79° 259° (W) 17:46:25 437.300
KKS-1 27 Feb 17:43:45 17:46:54 19° 294° (WNW) 17:50:03 437.445
M-CUBED/EXP-1 PRIME 27 Feb 17:43:46 17:47:40 88° 110° (ESE) 17:51:52 437.505
CUTE 1.7 + AOD 2 27 Feb 17:44:29 17:47:06 16° 66° (ENE) 17:49:41 437.475
LilacSat-2 27 Feb 17:56:19 17:59:54 36° 262° (W) 18:03:32 437.200
STARS 27 Feb 18:10:15 18:13:36 21° 294° (WNW) 18:16:57 437.465
HO-68 27 Feb 18:10:20 18:17:12 51° 67° (ENE) 18:24:04 435.675
XW-2A 27 Feb 18:10:47 18:13:59 40° 73° (ENE) 18:17:13 145.665 - 145.685
DOVE 4 27 Feb 18:14:32 18:17:54 24° 265° (W) 18:21:19 437.250
AAUSAT CUBESAT 2 27 Feb 18:19:13 18:20:49 12° 64° (ENE) 18:22:25 437.432
STRAND 1 27 Feb 18:28:25 18:32:16 21° 93° (E) 18:36:04 437.568
CUBEBUG 2 27 Feb 18:29:03 18:32:34 23° 67° (ENE) 18:36:11 437.445
SEEDS 27 Feb 18:35:14 18:39:07 37° 72° (ENE) 18:43:01 437.485
KAITUO 1B 27 Feb 18:43:15 18:45:07 13° 268° (W) 18:46:58 145.475/437.950
UWE-3 27 Feb 19:00:19 19:04:15 31° 69° (ENE) 19:08:17 435.000/436.395/437.385
CUTE-I 27 Feb 19:11:02 19:12:56 12° 271° (W) 19:14:51 437.470
RS-15 27 Feb 19:12:09 19:23:04 37° 323° (NW) 19:34:16 29.354- 29.394
YUBILEINY 27 Feb 19:12:15 19:16:19 14° 59° (ENE) 19:20:22 435.215
ZACube-1 27 Feb 19:15:29 19:19:13 27° 69° (ENE) 19:23:03 437.345
CUTE 1.7 + AOD 2 27 Feb 19:18:28 19:22:33 44° 261° (W) 19:26:40 437.475
AAUSAT CUBESAT 2 27 Feb 19:51:41 19:55:47 57° 260° (W) 19:59:52 437.432
HO-68 27 Feb 19:59:00 20:05:07 30° 264° (W) 20:11:15 435.675
AO-73 27 Feb 20:01:28 20:05:56 76° 76° (ENE) 20:10:30 145.935
Oscar 11 27 Feb 20:04:56 20:09:16 73° 75° (ENE) 20:13:38 .
CUBEBUG 2 27 Feb 20:04:57 20:08:58 33° 264° (W) 20:13:08 437.445
STRAND 1 27 Feb 20:06:43 20:11:38 45° 289° (WNW) 20:16:29 437.568
SEEDS 27 Feb 20:12:04 20:14:55 17° 267° (W) 20:17:47 437.485
SO-50 27 Feb 20:27:22 20:30:53 21° 111° (ESE) 20:34:22 436.795
UWE-3 27 Feb 20:37:02 20:40:41 24° 266° (W) 20:44:26 435.000/436.395/437.385
ZACube-1 27 Feb 20:51:32 20:55:23 28° 265° (W) 20:59:19 437.345
DELFI C3 27 Feb 20:59:57 21:03:55 84° 258° (WSW) 21:07:53 145.870
O/OREOS (USA 219) 27 Feb 21:05:40 21:08:49 19° 101° (E) 21:11:59 437.305
YUBILEINY 27 Feb 21:06:06 21:14:51 72° 81° (E) 21:23:30 435.215
TIGRISAT 27 Feb 21:12:08 21:15:19 18° 92° (E) 21:18:28 435.000
UNISAT 6 27 Feb 21:12:33 21:15:56 20° 93° (E) 21:19:16 437.425
RS-15 27 Feb 21:32:05 21:40:46 21° 357° (N) 21:49:28 29.354- 29.394
FO-29 27 Feb 21:40:22 21:46:20 25° 90° (E) 21:51:48 435.910
PRISM 27 Feb 21:46:29 21:50:34 75° 284° (WNW) 21:54:38 437.425
NO-84 27 Feb 22:01:06 22:04:31 26° 32° (NNE) 22:08:07 435.350 FM
SO-50 27 Feb 22:06:36 22:11:04 43° 308° (NW) 22:15:29 436.795
LO-87 27 Feb 22:26:27 22:29:55 60° 259° (WSW) 22:33:26 145.935 - 145.965
ESTCUBE 1 27 Feb 22:29:15 22:33:42 64° 74° (ENE) 22:38:10 437.505/2401.250
SPROUT 27 Feb 22:30:45 22:33:29 17° 66° (ENE) 22:36:13 437.525
VELOX 1 27 Feb 22:42:58 22:46:43 29° 69° (ENE) 22:50:29 145.980
O/OREOS (USA 219) 27 Feb 22:43:44 22:47:54 38° 297° (WNW) 22:52:07 437.305
50 SAT 27 Feb 22:44:20 22:46:31 16° 68° (ENE) 22:48:42 437.505
TIGRISAT 27 Feb 22:47:44 22:52:12 44° 288° (WNW) 22:56:35 435.000
UNISAT 6 27 Feb 22:48:22 22:52:47 40° 289° (WNW) 22:57:06 437.425
DUCHIFAT 1 27 Feb 22:58:59 23:01:56 18° 93° (E) 23:04:52 145.980
YUBILEINY 27 Feb 23:04:25 23:10:41 23° 280° (W) 23:16:58 435.215
EO-79 27 Feb 23:12:30 23:16:19 31° 97° (E) 23:20:07 145.935-145.965
AIST 2D 27 Feb 23:18:05 23:21:38 66° 101° (ESE) 23:25:08 435.315
PCSat 27 Feb 23:23:11 23:27:14 21° 46° (NE) 23:31:15 145.827
FO-29 27 Feb 23:24:26 23:31:51 60° 289° (WNW) 23:38:30 435.910
NANOSAT C BR1 27 Feb 23:27:27 23:31:32 42° 99° (E) 23:35:34 145.865
POLYITAN 1 27 Feb 23:30:40 23:34:52 50° 100° (E) 23:39:02 437.675
QB50P2 27 Feb 23:33:44 23:37:59 59° 101° (E) 23:42:12 145.880/145.840
NO-84 27 Feb 23:38:23 23:42:24 52° 228° (SW) 23:46:38 435.350 FM
BUGSAT 1 27 Feb 23:44:08 23:47:17 20° 94° (E) 23:50:25 437.445
RS-15 27 Feb 23:48:04 23:58:51 33° 32° (NNE) 00:09:19 29.354- 29.394
DX 1 28 Feb 00:00:26 00:04:45 89° 267° (W) 00:09:06 434.975-435.025
SPROUT 28 Feb 00:05:01 00:09:02 41° 261° (W) 00:13:07 437.525
UKube-1 28 Feb 00:06:39 00:10:56 77° 75° (ENE) 00:15:15 .
ESTCUBE 1 28 Feb 00:09:24 00:10:54 11° 270° (W) 00:12:24 437.505/2401.250
50 SAT 28 Feb 00:16:21 00:19:24 28° 263° (W) 00:22:27 437.505
Oscar 19 28 Feb 00:17:20 00:19:59 14° 91° (E) 00:22:36 437.125/150
VELOX 1 28 Feb 00:19:35 00:23:08 24° 265° (W) 00:26:44 145.980
DUCHIFAT 1 28 Feb 00:33:47 00:37:43 36° 289° (WNW) 00:41:37 145.980
EO-79 28 Feb 00:48:34 00:51:54 22° 292° (WNW) 00:55:12 145.935-145.965
NANOSAT C BR1 28 Feb 01:04:09 01:06:53 17° 295° (WNW) 01:09:37 145.865
PCSat 28 Feb 01:05:42 01:11:06 64° 245° (WSW) 01:16:26 145.827
POLYITAN 1 28 Feb 01:07:52 01:10:13 15° 296° (WNW) 01:12:33 437.675
QB50P2 28 Feb 01:11:25 01:13:15 13° 297° (WNW) 01:15:05 145.880/145.840
FO-29 28 Feb 01:12:41 01:15:09 12° 310° (NW) 01:17:34 435.910
BUGSAT 1 28 Feb 01:18:52 01:22:41 33° 289° (WNW) 01:26:31 437.445
ITUPSAT 1 28 Feb 01:18:58 01:23:12 31° 68° (ENE) 01:27:26 437.325
MOZHAYETS 4 28 Feb 01:21:01 01:22:35 12° 62° (ENE) 01:24:09
BEESAT 28 Feb 01:23:24 01:27:44 35° 69° (ENE) 01:32:05 436.000
Gurwin Techsat 1B 28 Feb 01:24:12 01:29:05 36° 97° (E) 01:33:55 435.225
Oscar 19 28 Feb 01:54:39 01:59:44 65° 287° (WNW) 02:04:48 437.125/150
RS-15 28 Feb 02:00:51 02:13:15 89° 57° (ENE) 02:25:05 29.354- 29.394
AO-85 28 Feb 02:11:07 02:13:27 14° 110° (ESE) 02:15:43 145.980
AO-7 28 Feb 02:34:55 02:41:41 27° 95° (E) 02:48:24 .
ITAMSAT 1 28 Feb 02:35:17 02:39:50 29° 96° (E) 02:44:19 435.822/435.867
MOZHAYETS 4 28 Feb 02:54:27 02:59:05 76° 257° (WSW) 03:03:45
ITUPSAT 1 28 Feb 02:56:57 03:01:00 27° 264° (W) 03:05:04 437.325
BEESAT 28 Feb 03:01:45 03:05:34 23° 265° (W) 03:09:24 436.000
KKS-1 28 Feb 03:03:46 03:07:45 34° 70° (ENE) 03:11:46 437.445
Gurwin Techsat 1B 28 Feb 03:04:22 03:08:52 29° 294° (WNW) 03:13:21 435.225
STARS 28 Feb 03:29:26 03:33:10 29° 69° (ENE) 03:36:57 437.465
AO-85 28 Feb 03:48:59 03:53:28 59° 304° (NW) 03:57:40 145.980
CUBESAT XI-V 28 Feb 04:02:04 04:06:44 87° 73° (ENE) 04:11:23 437.345
